Location: Bazugues
(43.4465°N, 0.3432°E)
Time: 07:04:48
(UTC+00:00)

ARIANE 5 R/B - Pass Details

Date: 12 January 2026
Orbit: 746 x 793 km, 98.8° (Epoch: 10 February)

Event Time Altitude Azimuth Distance (km) Brightness Sun altitude
Rises 18:05:51 0° 179° (S) 3,271 6.0 -14.4°
Reaches altitude 10° 18:08:14 10° 184° (S) 2,349 5.3 -14.8°
Maximum altitude 18:13:16 51° 260° (W) 999 3.5 -15.7°
Drops below altitude 10° 18:18:22 10° 336° (NNW) 2,366 5.2 -16.6°
Sets 18:20:46 0° 341° (NNW) 3,297 5.8 -17.0°
